Regional Weather Roundup
Issued by NWS

Home | Current Version | Previous Version | Text Only | Print | Product List | Glossary Off
Versions: 1 2 3 4 5 6 7 8 9 10 11 12 13 14 15 16 17 18 19 20 21 22 23 24 25 26 27 28 29 30 31 32 33 34 35 36 37 38 39 40 41 42 43 44 45 46 47 48 49 50

000
ASUS43 KDTX 171610
RWRMI
MICHIGAN HOURLY REGIONAL WEATHER ROUNDUP
NATIONAL WEATHER SERVICE DETROIT/PONTIAC MI
1100 AM EST WED JAN 17 2018

NOTE: "FAIR" INDICATES FEW OR NO CLOUDS BELOW 12,000 FEET WITH NO
SIGNIFICANT WEATHER AND/OR OBSTRUCTION TO VISIBILITY.

MIZ047>049-052>055-059>063-066>070-074>076-081>083-171700-
SOUTHEAST LOWER MICHIGAN

CITY           SKY/WX    TMP DP  RH WIND       PRES   REMARKS
ADRIAN         LGT SNOW   9   6  88 SW7       30.48S FOG     WCI  -2
ALMA           FAIR      19  12  77 SW8       30.39S WCI   8
ANN ARBOR      FAIR      10   6  84 S8        30.45S WCI  -2
BAD AXE        FAIR      15  13  92 SW12G18   30.35F WCI   1
CARO           FAIR      17  13  82 SW14      30.37F WCI   3
DETROIT CITY   CLOUDY    15   7  70 SW8       30.46S WCI   4
DETROIT        CLOUDY    12   6  77 S8        30.47F WCI   0
FLINT          FAIR      16   9  74 SW13      30.41S WCI   2
GROSSE ILE     CLOUDY    10   5  78 SW5       30.47S WCI   2
HILLSDALE      FAIR      19  16  86 SW5       30.43S WCI  13
HOWELL         FAIR      17  12  78 SW12G17   30.41S WCI   4

CITY           SKY/WX    TMP DP  RH WIND       PRES   REMARKS
JACKSON        FAIR      17  12  80 SW13      30.43S WCI   4
LAMBERTVILLE   CLOUDY    11   7  84 SW5       30.49F WCI   3
LANSING        FAIR      19  12  74 SW12      30.42S WCI   7
LAPEER         FLURRIES  15  13  88 W9        30.40F WCI   4
MASON          FAIR      19  10  69 SW8       30.43S WCI   9
MONROE         CLOUDY    11   6  79 SW8       30.48S WCI  -1
MT. CLEMENS    PTSUNNY   18   6  59 W10       30.39F WCI   6
PONTIAC        FAIR      14   8  77 SW7       30.40S WCI   4
PORT HOPE        N/A     16   8  71 SW10G20   30.32F WCI   4
PORT HURON     CLOUDY    12   9  85 SW3       30.43S
TRI CITIES     FAIR      16  11  80 SW16      30.37F WCI   1
MIDLAND        FAIR      20  12  72 SW10G17   30.36F WCI   9
TROY           FLURRIES  18   9  70 SW6       30.45F WCI   9
SAGINAW HB     FAIR      16  10  79 SW15      30.37F WCI   1
$$
MIZ043>046-050>051-056>058-064>065-071>073-077>080-171700-
SOUTHWEST LOWER MICHIGAN

CITY           SKY/WX    TMP DP  RH WIND       PRES   REMARKS
BATTLE CREEK   FAIR      15  12  88 SW8       30.44R WCI   4
BENTON HARBOR  FAIR      23  15  71 W16       30.49R WCI  10
BIG RAPIDS     FAIR      21  12  68 W13G20    30.33F WCI   8
COLDWATER      FAIR      15  14  95 SW7       30.46S WCI   5
FREMONT        FAIR      23   9  55 W13G23    30.39S WCI  11
HOLLAND        FAIR      25  15  66 W16G24    30.44S WCI  12
GRAND RAPIDS   PTSUNNY   23  14  68 W13       30.41S WCI  11
IONIA          FAIR      20  13  75 SW12      30.39F WCI   8
KALAMAZOO      FAIR      18  13  80 SW8       30.46R WCI   8
LUDINGTON      FAIR      23  13  65 W15G22    30.37F WCI  10
MARSHALL       PTSUNNY   16  14  93 SW9       30.44S WCI   4
MOUNT PLEASANT FAIR      22  13  67 W8        30.34F WCI  12
MUSKEGON       PTSUNNY   24  14  65 W15G22    30.43R WCI  11
SOUTH HAVEN    LGT SNOW  27  16  63 W15G22    30.47S WCI  15
$$
MIZ016>042-171700-
NORTHERN LOWER MICHIGAN

CITY           SKY/WX    TMP DP  RH WIND       PRES   REMARKS
ALPENA         LGT SNOW  20  15  81 SW9       30.22F WCI   9
BEAVER ISLAND  FAIR      22  14  72 SW20G26   30.18F WCI   6
BELLAIRE       FAIR      22  16  79 SW13      30.26F WCI  10
CADILLAC       FAIR      18  13  80 SW13G20   30.26S WCI   5
CHARLEVOIX     FAIR      23  15  71 SW17G31   30.24F HAZE    WCI  10
FRANKFORT      FAIR      23  14  68 SW14G23   30.31F WCI  11
GRAYLING       CLOUDY    19  11  72 W15G24    30.24F WCI   5
HARBOR SPRINGS PTSUNNY   23  16  73 SW17G26   30.19S WCI   9
HOUGHTON LAKE  CLOUDY    19  12  74 W12G21    30.27F WCI   7
MANISTEE       FAIR      21  12  68 W12G24    30.35S WCI   9
OSCODA         CLOUDY    17  14  88 SW14      30.28F WCI   3
PELLSTON       FAIR      24  15  68 SW15G24   30.17F WCI  11
ROGERS CITY    CLOUDY    21  15  77 SW14      30.19F WCI   8
TRAVERSE CITY  CLOUDY    22  14  71 SW10      30.27F WCI  11
$$
MIZ007>008-015-171700-
EASTERN UPPER MICHIGAN

CITY           SKY/WX    TMP DP  RH WIND       PRES   REMARKS
KINROSS        FAIR      20  14  77 SW14G20   30.10F WCI   7
MACKINAC ISLAN FAIR      23  18  80 SW18G32   30.14F HAZE    WCI   8
NEWBERRY       FAIR      12   5  73 SW20      30.08F WCI  -6
S. S. MARIE    FAIR      20  11  68 SW15G23   30.08F WCI   6
MUNISING         N/A     14   6  70 SW12      30.09F WCI   0
$$
MIZ004>006-011>014-085-171700-
CENTRAL UPPER MICHIGAN

CITY           SKY/WX    TMP DP  RH WIND       PRES   REMARKS
MANISTIQUE     FAIR      13   4  69 SW9G22    30.15F WCI   0
ESCANABA       FAIR      13   5  70 SW10G18   30.17F WCI   0
MENOMINEE      FAIR      15   5  64 W10G17    30.26F WCI   2
SAWYER-GWINN   SUNNY     14   3  62 SW18G28   30.04F WCI  -3
$$
MIZ001>003-009>011-084-171700-
WESTERN UPPER MICHIGAN

CITY           SKY/WX    TMP DP  RH WIND       PRES   REMARKS
IRON MOUNTAIN  FAIR      14   1  56 W12G18    30.12F WCI   0
HOUGHTON       FAIR      20   2  45 W22G31    29.96F WCI   3
COPPER HARBOR    N/A     26   8  46 W10G23    29.90F WCI  16
IRONWOOD       FAIR      17   2  51 SW17      30.07F WCI   1
$$

ABBREVIATIONS USED IN REMARKS
   TC - TEMPERATURE IN CELSIUS
  WCI - WIND CHILL INDEX
   HX - HEAT INDEX
  VSB - VISIBILITY





USA.gov is the U.S. government's official web portal to all federal, state and local government web resources and services.